Durant, OK

10:49 AM CST on December 11, 2019 (GMT -0600)
Eaker

Weather History for KDUA - October, 2019

Change the Weather History Date:

Saturday, October 26, 2019

  Actual Average (KMLC) Record (KMLC)
Temperature  
Mean Temperature 59 °F -  
Max Temperature 68 °F 72 °F 89 °F (1992)
Min Temperature 50 °F 47 °F 26 °F (1957)
Degree Days  
Heating Degree Days 6    
Growing Degree Days 9 (Base 50)    
Moisture  
Dew Point 48 °F    
Average Humidity 80    
Maximum Humidity 94    
Minimum Humidity 46    
Precipitation  
Precipitation 0.00 in - - ()
Sea Level Pressure  
Sea Level Pressure 29.88 in    
Wind  
Wind Speed 8 mph (NW)    
Max Wind Speed 13 mph    
Max Gust Speed 21 mph    
Visibility 9 miles    
Events Rain    
Averages and records for this station are not official NWS values.
T = Trace of Precipitation, MM = Missing Value Source: NWS Daily Summary

Daily Weather History Graph

Daily Weather History Graph

Search for Another Location

Airport or City:

Astronomy

Oct. 26, 2019 Rise Set
Actual Time 7:39 AM CDT 6:39 PM CDT
Civil Twilight 7:13 AM CDT 7:04 PM CDT
Nautical Twilight 6:44 AM CDT 7:33 PM CDT
Astronomical Twilight 6:15 AM CDT 8:02 PM CDT
Moon 5:45 AM CDT (10/26) 6:08 PM CDT (10/26)
Length of Visible Light 11h 50m
Length of Day
10h 59m
Waning Crescent, 3% of the Moon is Illuminated
Oct 26
Waning Crescent
Oct 27
New
Nov 4
First Quarter
Nov 12
Full
Nov 19
Last Quarter

Hourly Weather History & Observations

Time (CDT) Temp. Dew Point Humidity Pressure Visibility Wind Dir Wind Speed Gust Speed Precip Events Conditions
12:16 AM 50.0 °F 46.4 °F 87% 29.99 in 10.0 mi NNW 12.7 mph 17.3 mph N/A Rain Light Rain
12:56 AM 50.0 °F 48.2 °F 94% 29.96 in 7.0 mi North 10.4 mph - N/A Rain Light Rain
1:19 AM 50.0 °F 48.2 °F 94% 29.95 in 10.0 mi NNW 11.5 mph - N/A   Drizzle
1:39 AM 50.0 °F 48.2 °F 94% 29.95 in 7.0 mi NNW 9.2 mph 17.3 mph N/A Rain Rain
1:57 AM 50.0 °F 48.2 °F 94% 29.94 in 10.0 mi NNW 10.4 mph - N/A Rain Light Rain
2:16 AM 50.0 °F 48.2 °F 94% 29.95 in 10.0 mi NNW 5.8 mph - N/A Rain Light Rain
2:38 AM 50.0 °F 48.2 °F 94% 29.95 in 10.0 mi NNW 6.9 mph - N/A Rain Rain
2:57 AM 50.0 °F 48.2 °F 94% 29.94 in 5.0 mi NNW 6.9 mph - N/A Rain Rain
3:16 AM 50.0 °F 48.2 °F 94% 29.93 in 7.0 mi NNW 8.1 mph - N/A Rain Rain
3:36 AM 50.0 °F 48.2 °F 94% 29.92 in 10.0 mi NNW 8.1 mph - N/A Rain Light Rain
3:59 AM 50.0 °F 48.2 °F 94% 29.90 in 10.0 mi NNW 9.2 mph - N/A Rain Rain
4:16 AM 50.0 °F 48.2 °F 94% 29.90 in 10.0 mi NNW 9.2 mph - N/A   Overcast
5:16 AM 50.0 °F 48.2 °F 94% 29.89 in 10.0 mi NW 6.9 mph - N/A   Overcast
5:36 AM 50.0 °F 48.2 °F 94% 29.88 in 10.0 mi WNW 5.8 mph - N/A   Overcast
5:58 AM 50.0 °F 48.2 °F 94% 29.88 in 10.0 mi WNW 8.1 mph - N/A   Overcast
6:16 AM 50.0 °F 48.2 °F 94% 29.88 in 10.0 mi WNW 9.2 mph - N/A   Overcast
6:36 AM 50.0 °F 48.2 °F 94% 29.88 in 10.0 mi WNW 6.9 mph - N/A   Overcast
6:56 AM 50.0 °F 48.2 °F 94% 29.87 in 10.0 mi WNW 6.9 mph - N/A   Overcast
7:19 AM 50.0 °F 46.4 °F 87% 29.88 in 10.0 mi WNW 10.4 mph - N/A   Overcast
7:56 AM 50.0 °F 46.4 °F 87% 29.87 in 10.0 mi WNW 10.4 mph - N/A   Overcast
8:17 AM 50.0 °F 46.4 °F 87% 29.88 in 10.0 mi WNW 10.4 mph 17.3 mph N/A   Overcast
8:36 AM 50.0 °F 46.4 °F 87% 29.88 in 3.0 mi NW 11.5 mph 20.7 mph N/A Rain Light Rain
9:17 AM 50.0 °F 46.4 °F 87% 29.90 in 10.0 mi WNW 10.4 mph 16.1 mph N/A   Overcast
9:39 AM 50.0 °F 48.2 °F 94% 29.90 in 7.0 mi NW 6.9 mph - N/A   Overcast
9:57 AM 51.8 °F 48.2 °F 88% 29.89 in 3.0 mi WNW 9.2 mph - N/A   Overcast
10:17 AM 51.8 °F 48.2 °F 88% 29.89 in 7.0 mi WNW 9.2 mph - N/A   Overcast
10:37 AM 51.8 °F 48.2 °F 88% 29.89 in 7.0 mi NW 9.2 mph - N/A   Overcast
10:57 AM 51.8 °F 48.2 °F 88% 29.89 in 10.0 mi NW 10.4 mph 17.3 mph N/A   Overcast
11:17 AM 53.6 °F 48.2 °F 82% 29.89 in 10.0 mi WNW 11.5 mph 18.4 mph N/A   Overcast
11:38 AM 53.6 °F 48.2 °F 82% 29.88 in 10.0 mi WNW 12.7 mph 18.4 mph N/A   Mostly Cloudy
12:17 PM 55.4 °F 48.2 °F 77% 29.88 in 10.0 mi NW 11.5 mph - N/A   Overcast
12:37 PM 55.4 °F 48.2 °F 77% 29.87 in 10.0 mi NW 11.5 mph - N/A   Overcast
12:57 PM 57.2 °F 48.2 °F 72% 29.86 in 10.0 mi NNW 9.2 mph - N/A   Scattered Clouds
1:17 PM 60.8 °F 50.0 °F 68% 29.86 in 10.0 mi NNW 10.4 mph - N/A   Clear
1:37 PM 62.6 °F 50.0 °F 63% 29.84 in 10.0 mi NNW 9.2 mph - N/A   Clear
1:58 PM 62.6 °F 50.0 °F 63% 29.83 in 10.0 mi NW 10.4 mph - N/A   Clear
2:17 PM 64.4 °F 48.2 °F 56% 29.83 in 10.0 mi NW 8.1 mph - N/A   Clear
2:37 PM 64.4 °F 48.2 °F 56% 29.83 in 10.0 mi NNW 8.1 mph - N/A   Clear
3:17 PM 66.2 °F 48.2 °F 52% 29.83 in 10.0 mi NW 9.2 mph - N/A   Scattered Clouds
3:57 PM 68.0 °F 46.4 °F 46% 29.83 in 10.0 mi NW 4.6 mph - N/A   Scattered Clouds
4:19 PM 66.2 °F 48.2 °F 52% 29.83 in 10.0 mi WNW 6.9 mph - N/A   Scattered Clouds
4:37 PM 68.0 °F 48.2 °F 49% 29.83 in 10.0 mi West 6.9 mph - N/A   Scattered Clouds
5:17 PM 68.0 °F 46.4 °F 46% 29.83 in 10.0 mi West 4.6 mph - N/A   Clear
5:37 PM 68.0 °F 46.4 °F 46% 29.83 in 10.0 mi West 3.5 mph - N/A   Clear
6:17 PM 66.2 °F 48.2 °F 52% 29.83 in 10.0 mi SW 3.5 mph - N/A   Clear
6:37 PM 62.6 °F 48.2 °F 59% 29.83 in 10.0 mi Calm Calm - N/A   Clear
6:58 PM 60.8 °F 48.2 °F 63% 29.83 in 10.0 mi Calm Calm - N/A   Clear
7:37 PM 57.2 °F 48.2 °F 72% 29.83 in 10.0 mi Calm Calm - N/A   Clear
7:59 PM 55.4 °F 48.2 °F 77% 29.84 in 10.0 mi Calm Calm - N/A   Clear
8:17 PM 53.6 °F 48.2 °F 82% 29.85 in 10.0 mi Calm Calm - N/A   Clear
8:57 PM 53.6 °F 48.2 °F 82% 29.85 in 10.0 mi Calm Calm - N/A   Clear
9:19 PM 53.6 °F 48.2 °F 82% 29.85 in 10.0 mi Calm Calm - N/A   Clear
9:38 PM 51.8 °F 48.2 °F 88% 29.86 in 10.0 mi Calm Calm - N/A   Clear
9:57 PM 51.8 °F 48.2 °F 88% 29.86 in 10.0 mi Calm Calm - N/A   Clear
10:17 PM 51.8 °F 48.2 °F 88% 29.87 in 10.0 mi South 3.5 mph - N/A   Clear
10:39 PM 51.8 °F 46.4 °F 82% 29.87 in 10.0 mi South 3.5 mph - N/A   Clear
10:59 PM 51.8 °F 46.4 °F 82% 29.87 in 10.0 mi South 4.6 mph - N/A   Clear
11:17 PM 51.8 °F 46.4 °F 82% 29.86 in 10.0 mi South 4.6 mph - N/A   Clear
11:38 PM 50.0 °F 46.4 °F 87% 29.86 in 10.0 mi South 4.6 mph - N/A   Clear
11:57 PM 50.0 °F 46.4 °F 87% 29.87 in 10.0 mi South 3.5 mph - N/A   Clear